Location: Claflin County Park
(44.8478°N, 87.5507°W)
Time: 03:24:38
(UTC+00:00)

USA 234 - Pass Details

Date: 17 March 2026
Orbit: 1102 x 1106 km, 123.0° (Epoch: 4 January)

Event Time Altitude Azimuth Distance (km) Brightness Sun altitude
Exits shadow 02:16:48 29° 58° (ENE) 1,912 4.2 -24.8°
Maximum altitude 02:19:12 38° 17° (NNE) 1,620 4.1 -25.1°
Drops below altitude 10° 02:25:08 10° 313° (NW) 2,970 6.5 -26.1°
Sets 02:27:47 0° 306° (NW) 3,930 7.5 -26.5°
